Location: Columbia, SC
(34.0000°N, 81.0300°W)
Time: 05:46:49
(UTC-04:00)

Tiangong 1 - Visible Passes

Search period start: 30 September 2014 00:00
Search period end: 10 October 2014 00:00
Orbit: 359 x 369 km, 42.8° (Epoch: 29 September)

Date Brightness Start Highest point End Pass type
(mag) Time Alt. Az. Time Alt. Az. Time Alt. Az.
30 Sep 2.9 05:33:17 25° SE 05:33:17 25° SE 05:35:32 10° E visible
01 Oct 0.8 06:02:15 55° WSW 06:02:48 81° NNW 06:05:49 10° ENE visible
02 Oct 4.6 04:59:12 11° ENE 04:59:12 11° ENE 04:59:19 10° ENE visible
02 Oct 2.2 06:31:00 16° WNW 06:32:47 29° NNW 06:35:29 10° NE visible
03 Oct 3.2 05:27:47 23° NE 05:27:47 23° NE 05:29:09 10° NE visible
04 Oct 2.6 05:56:12 23° NNW 05:56:12 23° NNW 05:58:34 10° NE visible
05 Oct 3.2 06:24:28 12° NW 06:25:59 16° N 06:27:58 10° NE visible
06 Oct 4.1 05:20:51 12° NNE 05:20:51 12° NNE 05:21:16 10° NE visible
06 Oct 3.3 06:53:57 10° NW 06:55:53 16° N 06:57:49 10° NE visible
07 Oct 3.4 05:48:54 15° N 05:48:54 15° N 05:50:35 10° NE visible
08 Oct 3.3 06:16:51 12° NNW 06:18:24 17° N 06:20:26 10° NE visible
09 Oct 2.7 06:45:17 10° NW 06:47:53 26° NNE 06:50:29 10° ENE visible
